Temp
9 9 9 10 9 9 10 10 10 11 11 12 13 14 14 15 16 17 17 19 18 21 20 21 22 23 22 22 18 19 18 17 15 11 13 16 13 16 17 18 14 13 13 11 13 13 13 18 18 15 15 15 13 13
8 9 9 9 9 9 9 10 10 10 11 11 12 13 14 15 16 17 19 18 18 20 18 17 16 17 18 20 21 19 20 18 18 16 14 15 12 10 13 15 21 18 17 17 16 15 18 18 17 16 13 13 13 12
7 7 8 8 8 9 9 9 10 10 10 11 11 12 13 14 15 16 17 17 19 16 18 18 18 17 17 18 19 19 19 21 19 18 11 10 10 12 11 15 17 19 21 16 16 18 19 18 17 14 13 13 13 13
6 7 7 8 8 8 9 10 10 10 10 10 11 11 12 13 14 15 16 16 17 13 9 17 16 17 15 17 19 19 19 18 17 15 9 8 10 16 12 14 15 17 19 18 17 18 18 16 14 13 13 13 13 13
6 6 7 7 8 8 9 9 10 10 10 10 10 11 12 12 13 14 15 15 15 17 12 15 17 16 16 17 18 18 18 17 16 11 8 10 15 15 14 13 14 17 17 16 15 17 15 14 13 13 12 13 13 13
6 6 6 7 7 8 8 9 10 10 10 10 10 10 11 12 13 14 17 15 14 15 13 13 16 16 16 17 18 18 18 18 17 14 10 14 17 15 11 12 16 18 19 18 17 15 14 13 13 13 13 14 13 12
5 6 6 6 6 7 7 8 9 9 10 10 10 10 10 11 12 13 14 12 13 14 12 12 14 14 14 17 17 17 17 17 16 15 13 13 15 15 9 11 16 17 18 18 15 14 13 13 13 13 13 12 12 12
5 5 6 6 6 6 7 7 8 9 9 9 9 10 10 11 11 12 11 12 13 15 14 12 11 11 13 10 11 12 12 12 14 15 12 12 15 13 12 16 17 17 17 14 13 13 13 14 13 13 12 12 11 11
5 5 5 6 6 6 7 7 7 8 8 8 9 9 9 10 11 11 12 12 12 13 14 10 10 10 13 9 9 9 11 10 12 10 11 11 10 11 13 15 16 17 15 14 13 13 13 13 13 12 12 11 10 10
4 4 4 5 5 6 7 7 7 7 8 9 8 8 7 8 10 10 12 13 11 12 12 9 12 11 12 8 8 9 8 9 10 9 8 8 10 14 15 15 15 14 14 13 11 11 11 11 11 11 10 10 9 7
4 4 5 4 5 5 6 6 7 7 6 7 6 5 6 7 8 9 9 9 8 9 9 9 9 9 10 9 8 8 8 8 9 9 9 8 9 11 13 13 13 13 13 13 13 12 11 11 10 9 8 7 5 4
4 5 5 5 5 5 6 6 6 6 6 6 6 6 6 5 5 9 8 7 8 10 7 6 8 9 7 10 8 6 7 6 9 7 7 9 12 13 12 11 12 12 12 11 11 10 10 9 8 6 5 5 4 3
4 4 5 5 5 5 5 5 5 5 6 6 4 3 5 3 6 7 8 7 7 5 5 5 5 5 5 6 5 5 7 8 6 7 9 11 12 12 12 11 11 10 7 9 9 9 7 7 5 4 3 3 3 2
4 4 4 5 5 5 5 5 6 6 6 3 3 6 5 6 6 6 6 5 4 4 4 4 4 5 3 5 4 7 6 6 8 8 9 10 11 12 11 11 10 8 4 5 5 6 5 4 4 4 3 3 2 1
3 4 4 5 5 5 5 5 6 5 5 4 4 6 6 4 3 3 2 3 3 4 4 4 4 5 5 5 5 6 6 7 8 8 7 8 8 8 7 8 6 3 2 3 6 5 4 3 2 2 3 3 2 -0
3 4 4 4 5 5 4 5 5 5 5 5 4 5 4 5 4 3 3 3 4 4 5 5 5 6 6 6 6 7 7 8 8 7 7 7 6 6 6 6 6 6 5 5 4 4 3 2 1 1 1 1 1 1
4 4 4 4 4 4 4 4 4 4 4 4 4 3 3 4 4 3 4 4 4 4 5 5 6 6 5 6 7 7 7 6 5 6 6 6 6 6 6 6 5 5 4 4 4 4 3 3 2 -0 -0 1 2 2
4 4 4 4 4 4 3 3 5 6 5 6 5 3 3 3 3 3 4 4 5 5 6 5 6 5 6 7 8 7 6 4 5 6 6 6 6 6 6 6 6 6 5 5 4 3 3 2 0 1 2 3 4 4
3 3 4 3 4 4 3 2 3 5 4 3 3 3 3 2 2 2 2 3 4 4 5 5 5 7 7 7 5 3 4 5 6 6 6 7 6 6 5 4 4 4 4 4 4 4 4 4 4 4 4 4 3 3
3 3 3 3 3 3 3 4 3 4 5 5 3 4 2 2 1 1 2 2 3 4 4 5 6 7 7 7 7 6 6 6 6 5 5 6 6 6 4 4 5 5 4 4 4 5 4 4 4 4 4 4 3 1
3 2 2 2 2 4 6 5 5 5 5 4 2 4 2 2 2 3 3 2 3 4 5 7 5 3 6 6 6 6 6 6 5 5 5 5 6 5 5 5 5 5 5 4 3 3 3 3 3 2 2 1 0 -1
2 2 2 1 0 1 4 3 5 5 4 3 3 4 3 3 2 2 2 3 4 6 7 7 7 7 6 4 5 4 5 4 4 4 4 4 4 5 5 5 4 4 3 3 3 3 2 2 2 1 1 1 -0 -1
1 1 1 -0 1 2 2 2 3 4 3 3 3 3 3 2 2 1 3 4 5 6 7 7 6 5 5 5 4 4 4 3 4 5 5 5 5 5 4 4 4 3 2 3 3 2 2 1 -0 -0 -1 -1 -2 -2
1 -0 1 2 2 2 2 2 4 4 4 4 4 4 3 3 2 2 4 5 6 6 6 5 5 6 4 2 4 6 5 5 5 5 4 4 4 4 4 4 3 3 3 2 2 1 -0 -1 -1 -1 -2 -2 -2 -2
1 1 1 1 2 2 2 2 3 4 3 3 3 3 2 1 3 3 3 5 2 0 0 2 4 5 4 4 5 5 2 1 1 2 2 2 2 1 1 1 1 1 1 0 -0 -0 -1 -1 -2 -2 -2 -2 -3 -3
2 1 2 2 2 3 3 3 3 4 4 3 3 2 2 3 3 4 5 2 1 0 -0 -0 0 2 4 2 1 -1 -2 -3 -3 -2 -1 -3 -3 -3 -2 -2 -1 -1 -5 -4 -4 -3 -3 -2 -2 -2 -3 -3 -3 -3
2 2 2 1 2 2 2 2 3 3 3 3 3 1 2 2 3 3 1 -2 -2 -3 -2 -2 -2 -2 -2 -2 -3 -4 -4 -5 -5 -5 -5 -4 -4 -6 -6 -6 -6 -7 -7 -6 -6 -5 -5 -4 -4 -4 -4 -3 -4 -4
2 2 1 2 3 3 3 3 2 3 3 5 3 2 3 3 2 -1 -3 -3 -4 -4 -3 -3 -5 -5 -5 -5 -5 -5 -6 -7 -7 -6 -5 -5 -5 -7 -9 -9 -9 -9 -8 -8 -8 -7 -7 -6 -6 -5 -6 -6 -6 -6
2 2 2 1 2 2 3 3 4 5 5 4 4 4 2 -2 -4 -5 -6 -6 -5 -5 -5 -5 -6 -6 -6 -6 -6 -7 -8 -9 -9 -8 -8 -7 -7 -9 -10 -10 -10 -11 -10 -10 -9 -9 -8 -8 -7 -7 -7 -7 -8 -8
0 1 2 1 1 3 2 1 2 0 3 2 2 1 -2 -6 -8 -8 -7 -7 -7 -7 -7 -7 -8 -8 -8 -8 -8 -8 -9 -10 -11 -11 -11 -11 -11 -12 -12 -12 -13 -12 -12 -12 -11 -10 -9 -9 -9 -7 -9 -10 -10 -10
1 1 2 2 2 1 -0 -2 -2 -1 -1 0 -0 0 -3 -7 -9 -10 -10 -9 -8 -9 -9 -8 -8 -9 -10 -10 -10 -10 -10 -11 -12 -12 -13 -13 -13 -14 -14 -14 -14 -14 -13 -13 -12 -11 -11 -11 -10 -10 -11 -12 -13 -13
1 1 2 2 1 -0 -1 -0 0 0 1 0 1 -3 -4 -4 -6 -9 -11 -10 -10 -10 -11 -11 -11 -11 -12 -12 -11 -11 -12 -12 -13 -13 -14 -14 -15 -15 -15 -15 -15 -15 -15 -15 -13 -12 -12 -12 -12 -13 -13 -15 -15 -16
0 0 0 0 1 1 0 -0 1 1 1 1 -1 -3 -5 -5 -7 -10 -11 -12 -12 -12 -12 -13 -13 -13 -12 -12 -13 -12 -13 -14 -14 -14 -15 -15 -16 -16 -17 -16 -16 -16 -17 -16 -14 -13 -14 -15 -15 -16 -17 -17 -18 -19
Height
731 738 743 748 753 758 762 765 767 769 770 772 773 774 774 774 774 773 775 774 774 775 781 780 779 780 784 787 805 804 813 816 822 842 840 830 840 828 826 820 841 846 852 860 854 856 849 819 820 837 832 832 836 837
732 738 745 750 755 759 762 765 767 770 771 773 774 775 776 776 775 775 776 776 775 776 784 786 787 788 788 789 790 800 800 807 811 822 831 829 841 845 836 835 805 824 823 827 833 830 814 814 820 824 830 833 836 840
739 740 745 751 756 759 762 765 768 770 772 774 775 776 777 777 777 778 778 778 778 782 787 788 789 791 791 790 791 798 799 796 803 808 831 839 845 838 845 829 817 808 803 819 821 811 810 811 816 824 829 832 833 835
745 746 749 752 756 760 762 765 768 770 773 774 776 777 778 779 779 780 781 780 781 786 803 790 791 792 792 793 793 794 794 800 804 813 831 838 840 818 831 822 819 813 807 810 810 806 806 813 820 824 828 829 831 831
750 751 752 754 757 759 761 765 768 771 773 775 776 778 779 780 780 780 782 782 782 785 797 793 791 793 794 794 795 796 797 801 807 821 832 829 816 816 817 821 817 806 807 813 813 804 810 815 822 824 825 826 827 828
756 755 755 757 758 759 762 765 768 771 773 776 778 779 780 781 781 782 781 785 784 785 792 799 793 793 794 795 795 796 797 799 801 810 821 812 804 811 825 821 803 799 797 799 802 808 813 818 820 820 822 822 825 828
758 758 759 761 760 760 761 763 766 769 773 776 779 780 781 782 782 783 784 786 785 786 791 798 794 796 797 795 796 797 798 799 802 804 809 812 806 806 823 815 799 796 796 797 804 810 814 818 817 819 821 823 826 827
761 761 763 764 763 763 763 763 765 768 772 776 778 780 782 782 784 785 785 785 786 787 788 796 800 803 799 804 805 805 806 807 805 802 809 811 804 807 806 792 790 790 791 799 806 811 814 814 816 818 821 823 826 828
765 766 767 766 765 765 765 766 766 768 772 776 779 781 783 784 785 784 785 786 787 791 785 796 799 803 797 807 810 812 811 814 810 810 810 809 809 804 792 789 787 785 793 800 805 808 811 814 816 819 822 824 827 828
768 768 768 767 767 767 767 767 767 768 771 776 779 781 783 782 784 785 786 788 789 786 787 793 790 795 796 810 813 815 817 813 811 813 816 814 797 788 785 785 786 791 795 800 806 809 813 817 820 822 824 826 828 830
770 770 771 769 769 768 767 766 767 769 771 774 776 780 780 781 784 786 790 791 792 788 785 786 790 795 799 803 810 813 814 815 809 807 810 805 797 786 783 787 793 795 797 800 804 809 815 819 822 824 826 827 828 829
773 773 773 773 773 772 769 769 771 771 772 774 775 779 782 783 787 783 786 790 786 775 784 788 787 789 799 799 804 817 813 819 804 811 813 794 780 776 783 792 796 798 801 806 811 815 820 822 824 825 825 825 825 825
776 777 778 776 775 775 775 774 773 774 775 776 779 783 785 792 786 779 776 780 779 784 787 789 793 797 802 804 811 813 809 805 812 807 798 784 783 783 788 794 799 803 808 811 815 818 822 823 824 824 823 822 821 820
777 778 778 777 777 778 779 779 778 778 779 786 790 785 786 783 786 785 787 789 789 787 788 790 795 797 804 803 809 802 808 807 802 797 791 789 785 787 792 798 802 810 815 817 819 820 821 821 821 821 819 818 817 816
780 781 782 782 782 782 782 781 781 782 784 788 789 785 787 794 796 795 795 794 791 789 791 792 794 796 801 803 804 805 805 796 795 791 799 795 794 797 802 804 809 813 815 817 818 818 818 818 817 816 815 814 813 811
782 782 784 784 783 783 784 784 784 785 787 789 791 790 794 791 793 795 796 795 793 791 791 793 795 793 796 797 799 795 794 792 792 799 800 802 804 805 808 809 811 812 813 814 815 815 814 813 813 812 810 809 807 805
783 784 784 785 785 785 786 787 788 790 791 792 794 795 795 794 795 797 796 796 795 796 796 796 793 798 803 797 796 796 796 800 805 803 804 805 807 808 810 811 811 811 812 812 812 812 810 809 809 809 806 801 800 799
786 785 786 787 787 788 789 789 791 789 789 789 789 794 795 796 797 796 797 797 797 797 795 797 797 800 798 795 790 796 799 805 804 803 804 806 807 808 810 810 810 809 809 809 809 808 806 805 804 802 799 796 794 793
787 787 787 788 789 790 792 794 793 789 793 795 796 796 798 800 800 800 801 801 799 798 798 799 801 796 794 795 799 805 803 803 803 804 804 805 806 807 807 808 809 808 806 805 804 803 801 800 799 797 794 793 791 789
787 788 789 789 790 791 794 793 794 792 789 793 797 797 801 802 803 803 803 803 801 800 802 800 797 797 797 798 799 800 801 803 803 806 807 806 804 803 804 804 804 804 802 801 799 798 796 794 793 791 789 787 786 785
787 788 789 790 790 790 789 789 791 791 791 794 799 797 802 803 803 803 804 804 804 803 799 794 798 801 801 801 801 800 801 803 803 805 805 804 803 802 803 803 802 801 799 797 796 794 793 791 788 786 784 783 782 782
787 788 789 790 791 792 790 791 789 791 794 798 800 796 801 802 803 805 807 805 801 795 794 794 795 795 797 799 799 801 801 802 802 804 803 802 801 801 800 799 799 797 796 794 792 790 787 786 785 783 781 779 778 778
787 788 789 790 789 789 793 792 791 791 794 798 798 799 801 803 805 810 805 801 798 794 793 792 794 796 798 798 800 801 801 802 802 801 800 800 799 798 797 796 795 794 791 789 787 786 784 782 781 779 777 775 774 773
786 788 784 783 785 787 790 790 787 788 790 792 793 794 799 801 807 805 799 793 792 794 795 797 797 796 798 799 799 797 800 801 800 799 798 798 797 795 794 792 790 788 786 783 782 780 779 778 776 775 773 772 771 769
786 787 783 782 784 784 782 786 787 786 788 791 793 794 801 805 800 797 797 792 802 804 804 802 798 797 799 799 798 800 802 803 802 801 800 799 796 793 791 790 787 786 784 781 777 775 774 773 772 771 770 768 767 765
774 780 777 776 778 775 776 780 782 781 784 790 793 799 801 797 796 791 788 801 804 807 808 808 805 803 801 804 805 806 807 806 805 804 802 801 800 797 793 789 786 784 783 781 778 775 772 770 768 766 765 765 763 761
771 774 778 780 776 776 779 781 780 781 785 786 790 797 796 795 790 791 803 810 810 812 812 812 811 811 811 811 811 811 810 808 808 806 802 800 798 795 794 793 791 789 785 782 779 776 773 769 767 765 763 761 760 758
773 774 776 778 776 775 777 779 782 781 780 779 786 790 789 787 792 807 812 814 814 814 813 813 813 814 813 813 812 811 810 809 807 804 800 798 797 797 796 794 792 788 785 782 779 776 773 770 766 764 762 760 759 756
776 778 779 782 778 778 778 777 777 776 778 781 783 783 789 805 812 813 816 816 816 815 815 815 815 815 814 814 813 812 812 812 810 807 805 802 800 799 797 795 791 788 785 781 778 775 772 768 765 762 760 759 757 756
782 782 779 781 780 776 782 783 784 787 785 787 788 792 801 813 818 818 818 818 818 818 818 818 818 818 818 818 817 816 815 814 814 813 810 807 805 802 799 795 791 788 785 781 777 773 770 767 763 760 759 759 758 758
784 782 781 779 779 786 790 791 791 791 791 790 791 792 803 813 819 821 821 821 821 821 821 821 821 821 821 820 820 818 816 816 815 814 812 809 806 803 799 796 792 788 785 781 777 774 770 767 764 762 761 761 761 760
784 784 782 780 783 791 792 790 789 789 787 789 789 798 803 805 812 823 826 824 824 824 825 825 824 823 823 822 820 819 818 816 814 812 810 807 804 802 798 794 790 787 783 780 777 774 771 768 766 765 764 763 763 762
788 789 789 788 786 786 790 790 785 785 786 786 793 799 808 809 816 825 827 827 827 827 827 827 826 824 822 820 819 818 816 815 812 810 808 805 802 799 795 792 789 786 782 778 776 773 771 770 768 767 766 765 765 764
Wind_Speed
29 26 23 19 18 17 15 12 9 6 4 3 1 2 4 5 5 6 2 6 3 3 3 5 1 8 4 6 5 8 4 2 2 3 3 2 2 4 2 3 6 7 7 4 3 3 6 2 2 1 4 6 4 2
21 27 23 20 17 15 13 11 8 6 4 2 1 1 3 4 4 3 0 6 8 3 4 5 6 6 6 8 5 8 3 6 4 3 2 1 2 2 2 3 8 4 6 4 9 5 8 2 5 4 2 3 2 3
20 21 20 18 15 14 12 10 8 6 4 3 1 1 2 3 3 3 4 3 3 2 3 4 3 4 3 5 5 3 1 3 6 5 4 3 3 4 4 5 2 3 7 3 2 7 9 5 3 8 6 2 2 4
18 18 16 13 11 13 12 11 9 7 5 4 3 2 1 2 2 2 3 3 2 6 4 2 3 3 2 2 2 3 7 8 9 5 3 3 3 8 5 6 3 5 5 6 9 12 9 8 5 6 3 5 5 6
18 16 14 12 8 7 12 13 12 9 7 5 3 3 2 1 1 3 2 2 2 4 3 1 2 2 2 4 5 7 13 6 3 3 2 4 2 1 3 1 4 6 10 7 8 4 2 4 4 3 4 3 6 4
17 17 14 11 9 5 4 13 14 12 9 6 3 2 3 3 2 0 2 2 1 4 3 2 2 3 3 5 7 8 9 4 4 4 3 3 6 3 3 3 8 11 9 7 8 4 3 2 5 3 4 3 5 4
16 17 16 11 10 9 3 4 15 14 11 8 5 3 3 3 1 2 1 2 2 3 2 1 2 1 3 6 3 2 2 1 1 2 3 2 2 3 4 5 8 9 10 9 6 5 3 3 3 5 4 1 2 4
12 13 14 13 11 10 9 3 7 15 13 10 7 4 4 3 2 2 2 1 3 1 1 3 2 1 3 2 1 4 2 2 1 1 2 2 2 2 4 7 8 11 7 9 6 2 4 2 6 4 3 2 5 7
11 10 11 11 10 8 7 7 2 12 14 12 8 5 2 2 4 2 3 2 1 2 2 2 6 4 6 2 2 2 1 1 1 1 2 1 3 6 7 8 8 7 5 8 5 6 5 3 3 2 2 4 6 8
12 12 12 13 13 8 4 5 3 3 18 15 9 3 1 3 6 9 2 1 2 2 1 3 3 3 5 1 1 2 2 1 2 2 1 2 5 10 10 5 2 8 7 6 5 6 6 3 1 2 4 7 8 8
12 11 12 14 15 10 7 6 3 7 10 5 3 1 1 9 4 0 2 2 2 3 3 3 4 4 3 3 3 0 3 2 3 2 3 3 3 7 12 7 4 5 7 6 8 8 7 2 2 4 4 5 4 8
11 11 11 12 11 12 10 8 7 5 4 6 9 7 4 3 2 4 5 2 4 5 3 4 2 3 2 1 3 2 3 2 5 5 2 3 3 7 10 9 7 8 11 11 9 7 4 2 5 5 4 7 12 13
8 8 10 9 8 10 13 15 15 17 10 6 6 3 2 2 3 3 5 3 3 2 2 2 3 2 2 2 3 2 6 5 1 3 3 1 6 7 10 8 9 14 15 9 6 4 5 6 8 10 12 14 15 16
4 6 8 9 7 8 9 9 8 6 6 3 1 3 1 2 1 1 2 2 2 2 3 3 3 2 1 2 2 4 1 2 3 3 3 4 5 7 8 7 9 9 9 6 3 3 6 9 12 14 15 16 16 19
4 3 5 7 7 6 3 2 3 6 3 2 0 2 2 1 1 2 1 1 3 1 2 2 2 2 2 3 1 3 4 3 3 1 2 3 6 9 7 7 7 6 5 1 2 6 9 14 16 17 17 17 17 17
4 3 2 1 4 6 6 5 5 4 3 2 2 2 1 0 2 2 2 2 1 1 1 2 2 2 2 2 2 2 2 1 2 2 2 4 6 6 4 4 5 2 0 4 7 11 14 15 15 17 17 19 23 21
3 3 1 3 3 5 4 4 3 2 2 1 1 1 1 2 2 1 1 1 3 2 2 1 2 4 1 0 0 1 0 2 1 1 4 5 4 3 1 2 3 5 7 10 12 13 15 17 16 12 15 22 19 19
1 4 1 5 4 3 3 4 1 1 1 2 2 2 1 2 1 1 1 1 0 1 0 2 2 2 1 1 1 2 2 2 2 1 3 3 2 2 5 7 8 10 11 13 14 16 16 17 13 15 19 20 15 13
5 4 1 7 2 3 2 2 3 0 2 1 2 2 2 2 2 4 2 3 3 2 2 1 1 2 1 2 1 1 1 0 1 1 0 4 5 6 7 9 11 13 14 15 15 14 15 16 18 19 19 16 14 15
7 5 4 9 3 3 1 1 1 1 1 3 1 2 2 2 1 1 1 1 1 1 1 1 1 2 1 1 1 2 3 3 1 1 3 3 8 5 9 10 10 12 14 15 16 16 15 15 16 18 19 18 15 10
7 8 4 6 1 1 1 2 2 0 2 2 1 1 2 2 1 1 1 1 1 1 2 3 2 2 2 3 3 4 3 1 2 2 4 4 7 9 10 13 14 13 11 11 12 14 16 16 17 18 19 12 8 10
3 10 4 4 1 2 1 1 1 2 1 2 2 1 2 2 2 1 1 1 2 4 3 2 3 2 3 3 4 5 4 3 4 7 9 10 4 7 8 8 10 10 11 13 15 15 16 16 17 20 20 20 18 18
9 11 4 3 2 3 3 1 1 3 3 4 1 3 2 2 1 1 2 3 3 4 6 5 3 4 3 5 2 5 6 5 6 7 8 8 10 11 12 13 15 14 13 16 17 17 15 13 17 17 18 19 17 16
8 2 4 4 3 3 3 3 2 3 3 3 4 3 3 2 2 2 2 2 0 2 1 1 2 3 5 1 4 1 5 6 8 9 8 9 11 14 16 17 18 20 18 17 17 16 17 19 19 17 16 14 15 14
4 4 3 4 3 4 4 6 4 3 3 4 4 3 3 3 3 3 2 3 5 5 5 9 6 2 1 1 2 8 19 19 14 11 15 16 17 17 16 16 18 18 22 22 17 14 13 14 14 14 15 12 14 16
3 3 2 3 3 3 4 5 5 5 4 4 3 3 3 3 3 3 2 3 5 5 6 6 6 5 5 13 9 13 15 19 17 14 15 19 20 19 17 14 14 13 18 20 21 18 17 17 15 14 10 13 15 12
3 3 2 2 1 4 3 3 3 3 4 4 4 5 4 3 4 2 4 7 3 6 7 8 9 8 8 10 10 12 12 14 14 16 20 19 11 12 15 14 14 16 19 18 18 18 17 16 14 12 13 12 10 12
2 2 3 2 2 1 3 3 3 3 3 4 6 4 3 3 2 3 3 5 6 6 5 8 11 9 9 10 10 9 11 15 16 14 13 7 11 17 22 20 20 21 20 19 19 19 18 16 16 13 12 12 13 5
3 2 2 3 1 2 1 2 2 1 2 3 4 3 3 3 4 5 6 6 6 7 8 9 10 11 9 10 10 8 10 13 15 11 11 7 13 17 25 23 23 23 22 22 20 19 19 18 15 12 12 7 8 8
2 3 2 1 1 2 3 4 2 2 4 3 2 3 4 4 7 7 7 8 9 9 8 7 8 10 10 10 10 11 8 11 13 12 9 9 16 22 23 23 25 23 23 22 22 22 18 18 15 7 7 8 9 9
1 1 2 2 2 3 3 1 0 0 0 1 2 2 3 4 5 8 10 8 7 7 8 8 8 9 10 10 10 11 10 10 14 11 13 15 17 20 22 24 23 22 21 20 20 18 16 14 11 10 8 10 10 10
2 4 3 1 3 2 1 1 1 1 1 1 2 3 4 3 3 4 6 8 6 7 8 8 9 10 11 10 9 7 10 12 13 15 16 16 18 21 22 23 21 20 19 19 17 13 12 11 9 9 9 10 9 10
1 2 2 2 0 1 2 3 2 1 2 2 3 3 4 4 4 3 3 6 5 5 6 8 9 11 12 6 10 11 9 13 16 17 17 19 20 22 22 20 19 17 19 16 15 11 9 9 8 9 9 8 8 8
Wind_Direction
163 163 160 160 164 168 170 168 166 160 147 131 92 31 18 21 32 54 39 23 18 71 68 22 38 173 167 166 146 140 124 75 77 86 161 179 144 226 157 175 167 169 168 196 197 234 255 346 341 202 16 344 89 355
131 157 158 159 164 169 166 171 172 173 164 148 131 20 5 14 27 36 120 54 61 44 83 48 51 29 21 14 140 168 172 142 159 133 137 81 164 22 106 217 204 212 192 186 185 212 225 98 215 296 330 238 83 271
79 106 143 159 165 168 174 177 178 187 193 188 207 263 340 6 23 41 33 6 57 82 114 164 125 39 58 49 112 155 240 161 137 85 144 159 172 158 176 224 267 276 277 186 201 255 275 305 99 114 157 157 296 257
80 79 91 117 161 186 184 183 188 192 195 205 228 244 282 347 24 84 356 339 13 80 115 134 132 140 356 54 117 2 121 70 106 116 128 151 173 200 196 244 240 229 285 279 286 293 301 69 84 124 25 282 255 270
71 69 72 79 97 155 190 196 191 193 199 203 230 251 255 260 59 82 349 2 21 330 164 162 176 137 169 175 157 125 131 138 130 112 132 203 215 327 117 72 242 239 259 253 263 286 289 107 128 203 258 281 252 250
68 62 65 67 71 87 163 198 200 200 195 199 210 235 231 217 189 135 197 106 360 17 99 146 86 176 179 199 192 178 178 202 189 145 195 252 184 195 156 236 242 248 266 297 316 97 100 136 296 288 243 45 30 19
61 60 55 56 57 55 64 199 204 200 197 207 208 216 209 196 108 323 17 306 182 115 97 42 184 39 328 187 181 235 235 288 237 220 184 227 241 197 151 228 238 255 261 259 82 124 200 268 240 178 121 60 185 289
52 51 48 45 51 50 45 56 200 198 194 198 193 191 195 193 219 264 334 76 140 236 106 164 153 248 222 54 87 336 48 16 253 287 102 207 224 237 252 249 253 253 246 108 129 156 258 222 194 124 156 15 352 332
42 46 43 42 37 37 38 41 88 192 187 184 174 177 180 192 183 201 184 102 128 314 239 131 159 196 156 61 60 57 23 178 343 250 194 217 166 219 227 254 269 247 144 146 171 232 152 145 92 60 12 341 334 339
41 44 37 36 28 18 36 16 29 168 184 179 170 158 222 199 185 140 126 186 352 218 167 176 152 162 155 134 78 116 22 249 237 213 117 243 253 255 254 289 298 128 149 169 177 162 105 116 270 351 341 342 333 5
37 40 38 37 26 31 35 22 119 114 141 157 136 153 140 143 149 280 142 176 183 239 205 167 163 143 192 138 149 281 164 170 239 170 217 233 252 232 227 181 139 154 183 163 137 135 120 113 356 335 344 29 357 310
45 42 39 36 41 34 42 90 116 106 129 125 115 101 136 59 27 178 177 177 198 216 128 141 122 101 98 145 127 186 166 151 241 137 203 248 223 89 118 139 167 149 117 107 115 115 89 20 353 16 321 285 288 295
53 46 37 28 47 74 67 84 106 113 103 56 43 53 20 34 203 206 187 222 211 141 151 152 82 103 119 79 87 152 186 210 37 188 235 296 99 133 137 143 138 97 75 79 106 72 31 340 325 316 299 293 293 295
38 36 39 28 42 128 91 76 73 57 54 63 84 116 310 153 6 33 323 340 328 68 109 104 93 114 115 104 133 178 143 185 214 225 211 159 119 115 119 117 129 118 99 84 39 336 306 303 298 301 295 293 295 295
40 46 61 45 50 95 126 169 69 48 77 84 249 73 65 72 357 332 302 342 335 102 60 67 69 97 107 123 179 127 179 213 226 196 58 38 63 90 80 92 92 114 129 188 320 316 303 300 297 295 298 297 295 291
52 94 120 91 72 89 84 68 50 41 39 94 69 147 67 93 32 14 9 35 3 339 69 47 83 97 88 77 171 196 199 221 92 52 97 71 63 87 112 121 158 186 102 320 305 302 297 293 288 292 298 292 294 291
48 26 111 175 122 85 90 56 36 61 102 69 87 22 53 74 91 61 263 21 17 37 54 346 44 51 139 197 184 171 352 62 123 189 64 100 119 128 165 281 226 263 283 285 288 288 284 289 286 285 283 288 286 278
350 8 271 169 131 68 43 41 72 219 126 113 196 146 41 48 87 65 112 149 100 78 259 67 164 75 320 241 201 84 120 143 196 122 120 113 91 16 332 313 297 291 292 295 292 287 283 281 263 263 266 276 285 290
7 4 197 178 155 92 58 23 348 122 57 95 21 68 58 68 55 32 25 18 53 33 88 33 42 228 220 70 74 100 78 81 176 188 169 154 218 239 272 286 289 287 281 278 276 274 276 282 286 287 287 288 283 289
244 313 349 191 123 121 97 124 174 312 180 108 79 101 53 48 36 356 12 3 31 48 92 169 252 12 42 102 133 167 171 211 53 323 298 304 309 265 236 247 262 280 289 288 285 284 283 285 285 284 287 285 286 293
227 245 274 188 346 2 126 170 128 70 111 86 66 193 90 118 89 63 67 48 27 223 225 225 149 218 316 20 12 9 5 333 277 275 278 283 304 330 313 298 287 282 279 289 292 290 289 287 297 303 306 298 294 299
185 184 153 177 96 339 156 181 80 115 80 91 181 172 119 142 137 97 28 239 248 231 225 251 274 272 179 199 234 235 280 321 303 283 283 274 263 269 272 296 311 297 299 294 292 288 291 294 302 297 297 298 298 299
185 176 171 172 157 191 122 253 142 164 141 152 190 132 156 153 100 187 232 236 250 284 283 280 23 68 329 335 354 285 269 258 273 285 310 299 289 287 287 286 288 284 278 285 287 294 296 310 323 313 303 302 300 292
164 167 220 156 185 148 164 144 180 121 131 175 176 164 136 153 168 203 235 234 227 35 346 25 284 258 180 224 248 242 65 344 315 314 309 308 299 294 294 294 294 293 295 296 300 293 298 302 308 301 293 292 294 297
180 187 225 145 190 169 136 140 167 159 142 178 159 151 147 178 199 212 226 146 47 33 14 1 320 131 131 224 11 38 40 25 6 345 335 331 333 330 327 327 320 321 319 311 293 284 290 295 297 296 294 293 303 301
162 158 245 140 167 181 147 142 171 164 134 157 147 93 174 195 215 226 136 73 80 56 34 18 359 10 15 28 19 15 1 0 349 327 321 339 328 317 311 309 313 327 355 346 341 331 313 303 292 289 295 302 299 306
149 145 139 293 103 102 94 58 73 120 156 163 154 167 168 199 223 101 109 31 60 32 16 29 28 22 3 354 2 351 348 350 340 317 310 310 331 47 32 11 357 348 344 342 339 335 329 326 322 317 311 308 315 314
81 140 134 159 117 43 115 129 153 159 154 146 148 182 188 212 58 58 55 41 23 4 22 39 43 16 1 359 345 354 7 352 345 347 346 101 57 29 12 360 351 347 346 340 337 333 329 328 324 323 329 326 319 12
66 58 92 85 92 88 109 119 134 114 86 155 184 182 126 69 34 48 39 10 14 23 30 17 17 9 20 13 19 45 27 16 7 5 359 345 347 347 348 345 343 342 339 336 335 333 329 326 323 315 311 339 31 36
67 314 78 73 54 85 56 18 58 22 358 39 45 121 109 97 61 44 44 41 38 33 26 30 34 26 18 13 5 7 44 44 26 7 346 340 332 330 335 337 335 334 333 333 331 332 335 333 335 341 30 34 30 32
71 60 75 47 69 66 50 6 196 264 287 79 54 42 94 122 107 53 39 30 44 42 33 25 20 29 13 1 357 346 338 355 352 348 340 330 327 329 329 328 328 328 327 327 328 329 336 341 351 14 50 51 40 37
28 31 357 38 86 77 17 10 11 282 185 234 158 111 139 156 96 78 18 14 43 40 30 15 5 352 344 331 331 328 320 324 332 335 334 331 328 327 325 325 328 325 325 327 328 333 349 354 13 27 33 42 40 36
41 33 32 357 303 36 47 328 264 272 198 240 84 65 48 20 77 95 72 38 41 31 7 349 335 329 326 325 325 326 336 330 323 324 325 325 328 325 327 327 325 323 330 333 329 347 360 8 20 30 36 39 38 35